sat.trackr.live / text

‹ back to catalog

ONEWEB-0112

NORAD 48051 · 2021-025K

PAYLOAD ACTIVE UNKNOWN

§ Identity

Operator
Country
UK
Launch date
2021-03-25
Launch site
VOSTO
Launch vehicle
Mass (kg)
RCS (m²)

Purposes: comms

External: N2YO · Heavens-Above · Gunter

§ Orbital elements

Epoch: 2026-09-19T10:01:17.517504Z

Period
109.63 min
Inclination
87.8921°
Eccentricity
0.0001651
Mean motion
13.13469824 rev/d
Perigee alt
1,208.5 km
Apogee alt
1,211.0 km
Semi-major
7,587.9 km
B*
6.7367e-4
RAAN
301.4667°
Arg perigee
91.2558°
Mean anomaly
268.8760°
Rev number
26,596

§ Raw data

ONEWEB-01121 48051U 21025K   26262.41756386  .00000259  00000+0  67367-3 0  99932 48051  87.8921 301.4667 0001651  91.2558 268.8760 13.13469824265961

JSON: /api/v1/satellites/48051 · /tle

For live sub-satellite position, see the globe view (requires WebGL).

§ Visibility from observer

Set your observer location to see the next 7 days of passes ≥ 10°. The values pass through the URL so the page stays shareable.

No JS? Fill the form by hand. The geolocation button needs JavaScript.